Location: Ellingshausen
(50.5460°N, 10.4723°E)
Time: 22:01:20
(UTC+00:00)

Helios 1A Rocket - Pass Details

Date: 18 January 2026
Orbit: 427 x 437 km, 98.3° (Epoch: 7 February)

Event Time Altitude Azimuth Distance (km) Brightness Sun altitude
Rises 05:25:22 0° 177° (S) 2,438 6.3 -16.2°
Reaches altitude 10° 05:27:26 10° 183° (S) 1,572 5.3 -15.9°
Maximum altitude 05:30:41 47° 259° (W) 606 2.6 -15.4°
Enters shadow 05:32:13 26° 319° (NW) 915 3.5 -15.1°
